Year,Month,Day,Hour,Minute,Value (Times are PST for temperature in C)
2014,01,22,00,00,6.70
2014,01,22,00,01,6.70
2014,01,22,00,02,6.70
2014,01,22,00,03,6.70
2014,01,22,00,04,6.70
2014,01,22,00,05,6.70
2014,01,22,00,06,6.70
2014,01,22,00,07,6.70
2014,01,22,00,08,6.70
2014,01,22,00,09,6.70
2014,01,22,00,10,6.70
2014,01,22,00,11,6.60
2014,01,22,00,12,6.60
2014,01,22,00,13,6.60
2014,01,22,00,14,6.60
2014,01,22,00,15,6.60
2014,01,22,00,16,6.60
2014,01,22,00,17,6.60
2014,01,22,00,18,6.60
2014,01,22,00,19,6.60
2014,01,22,00,20,6.60
2014,01,22,00,21,6.60
2014,01,22,00,22,6.60
2014,01,22,00,23,6.60
2014,01,22,00,24,6.50
2014,01,22,00,25,6.50
2014,01,22,00,26,6.50
2014,01,22,00,27,6.50
2014,01,22,00,28,6.50
2014,01,22,00,29,6.50
2014,01,22,00,30,6.50
2014,01,22,00,31,6.50
2014,01,22,00,32,6.50
2014,01,22,00,33,6.50
2014,01,22,00,34,6.50
2014,01,22,00,35,6.40
2014,01,22,00,36,6.40
2014,01,22,00,37,6.40
2014,01,22,00,38,6.40
2014,01,22,00,39,6.40
2014,01,22,00,40,6.40
2014,01,22,00,41,6.40
2014,01,22,00,42,6.40
2014,01,22,00,43,6.40
2014,01,22,00,44,6.40
2014,01,22,00,45,6.40
2014,01,22,00,46,6.40
2014,01,22,00,47,6.50
2014,01,22,00,48,6.50
2014,01,22,00,49,6.50
2014,01,22,00,50,6.50
2014,01,22,00,51,6.50
2014,01,22,00,52,6.50
2014,01,22,00,53,6.50
2014,01,22,00,54,6.50
2014,01,22,00,55,6.50
2014,01,22,00,56,6.50
2014,01,22,00,57,6.50
2014,01,22,00,58,6.50
2014,01,22,00,59,6.50
2014,01,22,01,00,6.50
2014,01,22,01,01,6.50
2014,01,22,01,02,6.40
2014,01,22,01,03,6.40
2014,01,22,01,04,6.40
2014,01,22,01,05,6.40
2014,01,22,01,06,6.40
2014,01,22,01,07,6.40
2014,01,22,01,08,6.40
2014,01,22,01,09,6.40
2014,01,22,01,10,6.40
2014,01,22,01,11,6.40
2014,01,22,01,12,6.40
2014,01,22,01,13,6.40
2014,01,22,01,14,6.40
2014,01,22,01,15,6.40
2014,01,22,01,16,6.40
2014,01,22,01,17,6.40
2014,01,22,01,18,6.40
2014,01,22,01,19,6.40
2014,01,22,01,20,6.40
2014,01,22,01,21,6.40
2014,01,22,01,22,6.40
2014,01,22,01,23,6.40
2014,01,22,01,24,6.40
2014,01,22,01,25,6.40
2014,01,22,01,26,6.40
2014,01,22,01,27,6.40
2014,01,22,01,28,6.40
2014,01,22,01,29,6.40
2014,01,22,01,30,6.40
2014,01,22,01,31,6.40
2014,01,22,01,32,6.40
2014,01,22,01,33,6.40
2014,01,22,01,34,6.40
2014,01,22,01,35,6.40
2014,01,22,01,36,6.40
2014,01,22,01,37,6.40
2014,01,22,01,38,6.40
2014,01,22,01,39,6.40
2014,01,22,01,40,6.40
2014,01,22,01,41,6.40
2014,01,22,01,42,6.40
2014,01,22,01,43,6.40
2014,01,22,01,44,6.40
2014,01,22,01,45,6.40
2014,01,22,01,46,6.40
2014,01,22,01,47,6.40
2014,01,22,01,48,6.40
2014,01,22,01,49,6.40
2014,01,22,01,50,6.40
2014,01,22,01,51,6.40
2014,01,22,01,52,6.40
2014,01,22,01,53,6.40
2014,01,22,01,54,6.40
2014,01,22,01,55,6.40
2014,01,22,01,56,6.40
2014,01,22,01,57,6.40
2014,01,22,01,58,6.40
2014,01,22,01,59,6.40
2014,01,22,02,00,6.40
2014,01,22,02,01,6.40
2014,01,22,02,02,6.40
2014,01,22,02,03,6.30
2014,01,22,02,04,6.30
2014,01,22,02,05,6.30
2014,01,22,02,06,6.30
2014,01,22,02,07,6.40
2014,01,22,02,08,6.40
2014,01,22,02,09,6.40
2014,01,22,02,10,6.40
2014,01,22,02,11,6.40
2014,01,22,02,12,6.40
2014,01,22,02,13,6.40
2014,01,22,02,14,6.40
2014,01,22,03,06,6.20
2014,01,22,03,07,6.20
2014,01,22,03,08,6.20
2014,01,22,03,09,6.20
2014,01,22,03,10,6.10
2014,01,22,03,11,6.10
2014,01,22,03,12,6.10
2014,01,22,03,13,6.10
2014,01,22,03,14,6.10
2014,01,22,03,15,6.10
2014,01,22,03,16,6.00
2014,01,22,03,17,6.00
2014,01,22,03,18,6.00
2014,01,22,03,19,6.00
2014,01,22,03,20,6.00
2014,01,22,03,21,6.00
2014,01,22,03,22,5.90
2014,01,22,03,23,5.90
2014,01,22,03,24,5.90
2014,01,22,03,25,5.90
2014,01,22,03,26,5.90
2014,01,22,03,27,5.90
2014,01,22,03,28,5.90
2014,01,22,03,29,5.90
2014,01,22,03,30,5.90
2014,01,22,03,31,5.90
2014,01,22,03,32,5.80
2014,01,22,03,33,5.80
2014,01,22,03,34,5.80
2014,01,22,03,35,5.80
2014,01,22,03,36,5.80
2014,01,22,03,37,5.80
2014,01,22,03,38,5.80
2014,01,22,03,39,5.80
2014,01,22,03,40,5.70
2014,01,22,03,41,5.70
2014,01,22,03,42,5.70
2014,01,22,03,43,5.70
2014,01,22,03,44,5.70
2014,01,22,03,45,5.70
2014,01,22,03,46,5.70
2014,01,22,03,47,5.70
2014,01,22,03,48,5.70
2014,01,22,03,49,5.70
2014,01,22,03,50,5.70
2014,01,22,03,51,5.60
2014,01,22,03,52,5.60
2014,01,22,03,53,5.60
2014,01,22,03,54,5.60
2014,01,22,03,55,5.60
2014,01,22,03,56,5.60
2014,01,22,03,57,5.60
2014,01,22,03,58,5.60
2014,01,22,03,59,5.60
2014,01,22,04,00,5.60
2014,01,22,04,01,5.60
2014,01,22,04,02,5.60
2014,01,22,04,03,5.60
2014,01,22,04,04,5.50
2014,01,22,04,05,5.50
2014,01,22,04,06,5.50
2014,01,22,04,07,5.50
2014,01,22,04,08,5.50
2014,01,22,04,09,5.50
2014,01,22,04,10,5.50
2014,01,22,04,11,5.50
2014,01,22,04,12,5.50
2014,01,22,04,13,5.40
2014,01,22,04,14,5.50
2014,01,22,04,15,5.40
2014,01,22,04,16,5.40
2014,01,22,04,17,5.30
2014,01,22,04,18,5.30
2014,01,22,04,19,5.30
2014,01,22,04,20,5.20
2014,01,22,04,21,5.20
2014,01,22,04,22,5.20
2014,01,22,04,23,5.10
2014,01,22,04,24,5.10
2014,01,22,04,25,5.10
2014,01,22,04,26,5.10
2014,01,22,04,27,5.10
2014,01,22,04,28,5.10
2014,01,22,04,29,5.10
2014,01,22,04,30,5.00
2014,01,22,04,31,5.00
2014,01,22,04,32,5.00
2014,01,22,04,33,5.00
2014,01,22,04,34,5.00
2014,01,22,04,35,5.00
2014,01,22,04,36,4.90
2014,01,22,04,37,4.90
2014,01,22,04,38,4.90
2014,01,22,04,39,4.90
2014,01,22,04,40,4.80
2014,01,22,04,41,4.80
2014,01,22,04,42,4.80
2014,01,22,04,43,4.80
2014,01,22,04,44,4.80
2014,01,22,04,45,4.70
2014,01,22,04,46,4.70
2014,01,22,04,47,4.70
2014,01,22,04,48,4.60
2014,01,22,04,49,4.60
2014,01,22,04,50,4.60
2014,01,22,04,51,4.60
2014,01,22,04,52,4.50
2014,01,22,04,53,4.50
2014,01,22,04,54,4.40
2014,01,22,04,55,4.40
2014,01,22,04,56,4.40
2014,01,22,04,57,4.40
2014,01,22,04,58,4.30
2014,01,22,04,59,4.30
2014,01,22,05,00,4.30
2014,01,22,05,01,4.30
2014,01,22,05,02,4.30
2014,01,22,05,03,4.30
2014,01,22,05,04,4.30
2014,01,22,05,05,4.30
2014,01,22,05,06,4.30
2014,01,22,05,07,4.30
2014,01,22,05,08,4.30
2014,01,22,05,09,4.30
2014,01,22,05,10,4.30
2014,01,22,05,11,4.30
2014,01,22,05,12,4.30
2014,01,22,05,13,4.30
2014,01,22,05,14,4.30
2014,01,22,05,15,4.30
2014,01,22,05,16,4.30
2014,01,22,05,17,4.30
2014,01,22,05,18,4.30
2014,01,22,05,19,4.30
2014,01,22,05,20,4.30
2014,01,22,05,21,4.30
2014,01,22,05,22,4.30
2014,01,22,05,23,4.30
2014,01,22,05,24,4.30
2014,01,22,05,25,4.30
2014,01,22,05,26,4.30
2014,01,22,05,27,4.30
2014,01,22,05,28,4.30
2014,01,22,05,29,4.30
2014,01,22,05,30,4.30
2014,01,22,05,31,4.30
2014,01,22,05,32,4.30
2014,01,22,05,33,4.30
2014,01,22,05,34,4.30
2014,01,22,05,35,4.30
2014,01,22,05,36,4.30
2014,01,22,05,37,4.30
2014,01,22,05,38,4.30
2014,01,22,05,39,4.30
2014,01,22,05,40,4.30
2014,01,22,05,41,4.30
2014,01,22,05,42,4.30
2014,01,22,05,43,4.30
2014,01,22,05,44,4.30
2014,01,22,05,45,4.30
2014,01,22,05,46,4.30
2014,01,22,05,47,4.30
2014,01,22,05,48,4.30
2014,01,22,05,49,4.30
2014,01,22,05,50,4.30
2014,01,22,05,51,4.30
2014,01,22,05,52,4.30
2014,01,22,05,53,4.30
2014,01,22,05,54,4.30
2014,01,22,05,55,4.30
2014,01,22,05,56,4.30
2014,01,22,05,57,4.30
2014,01,22,05,58,4.30
2014,01,22,05,59,4.30
2014,01,22,06,00,4.30
2014,01,22,06,01,4.30
2014,01,22,06,02,4.30
2014,01,22,06,03,4.30
2014,01,22,06,04,4.30
2014,01,22,06,05,4.30
2014,01,22,06,06,4.30
2014,01,22,06,07,4.30
2014,01,22,06,08,4.30
2014,01,22,06,09,4.20
2014,01,22,06,10,4.20
2014,01,22,06,11,4.20
2014,01,22,06,12,4.20
2014,01,22,06,13,4.20
2014,01,22,06,14,4.20
2014,01,22,06,15,4.20
2014,01,22,06,16,4.20
2014,01,22,06,17,4.20
2014,01,22,06,18,4.20
2014,01,22,06,19,4.20
2014,01,22,09,25,4.30
2014,01,22,09,26,4.30
2014,01,22,09,27,4.40
2014,01,22,09,28,4.40
2014,01,22,09,29,4.40
2014,01,22,09,30,4.40
2014,01,22,09,31,4.40
2014,01,22,09,32,4.40
2014,01,22,09,33,4.50
2014,01,22,09,34,4.50
2014,01,22,09,35,4.50
2014,01,22,09,36,4.50
2014,01,22,09,37,4.50
2014,01,22,09,38,4.50
2014,01,22,09,39,4.50
2014,01,22,09,40,4.60
2014,01,22,09,41,4.60
2014,01,22,09,42,4.60
2014,01,22,09,43,4.60
2014,01,22,09,44,4.60
2014,01,22,09,45,4.60
2014,01,22,09,46,4.60
2014,01,22,09,47,4.60
2014,01,22,09,48,4.60
2014,01,22,09,49,4.60
2014,01,22,09,50,4.60
2014,01,22,09,51,4.60
2014,01,22,09,52,4.60
2014,01,22,09,53,4.60
2014,01,22,09,54,4.60
2014,01,22,09,55,4.60
2014,01,22,09,56,4.60
2014,01,22,09,57,4.60
2014,01,22,09,58,4.60
2014,01,22,09,59,4.60
2014,01,22,10,00,4.60
2014,01,22,10,01,4.60
2014,01,22,10,02,4.70
2014,01,22,10,03,4.70
2014,01,22,10,04,4.70
2014,01,22,10,05,4.70
2014,01,22,10,06,4.70
2014,01,22,10,07,4.70
2014,01,22,10,08,4.70
2014,01,22,10,09,4.70
2014,01,22,10,10,4.70
2014,01,22,10,11,4.70
2014,01,22,10,12,4.70
2014,01,22,10,13,4.70
2014,01,22,10,14,4.70
2014,01,22,10,15,4.70
2014,01,22,10,16,4.70
2014,01,22,10,17,4.70
2014,01,22,10,18,4.70
2014,01,22,10,19,4.70
2014,01,22,10,20,4.70
2014,01,22,10,21,4.70
2014,01,22,10,22,4.70
2014,01,22,10,23,4.80
2014,01,22,10,24,4.80
2014,01,22,10,25,4.80
2014,01,22,10,26,4.80
2014,01,22,10,27,4.80
2014,01,22,10,28,4.80
2014,01,22,10,29,4.80
2014,01,22,10,30,4.80
2014,01,22,10,31,4.80
2014,01,22,10,32,4.80
2014,01,22,10,33,4.80
2014,01,22,10,34,4.80
2014,01,22,10,35,4.80
2014,01,22,10,36,4.80
2014,01,22,10,37,4.80
2014,01,22,10,38,4.80
2014,01,22,10,39,4.80
2014,01,22,10,40,4.80
2014,01,22,10,41,4.80
2014,01,22,10,42,4.90
2014,01,22,10,43,4.90
2014,01,22,10,44,4.90
2014,01,22,10,45,4.90
2014,01,22,10,46,4.90
2014,01,22,10,47,4.90
2014,01,22,10,48,4.90
2014,01,22,10,49,4.90
2014,01,22,10,50,4.90
2014,01,22,10,51,4.90
2014,01,22,10,52,4.90
2014,01,22,10,53,4.90
2014,01,22,10,54,5.00
2014,01,22,10,55,5.00
2014,01,22,10,56,5.00
2014,01,22,10,57,5.10
2014,01,22,10,58,5.10
2014,01,22,10,59,5.10
2014,01,22,11,00,5.10
2014,01,22,11,01,5.10
2014,01,22,11,02,5.10
2014,01,22,11,03,5.10
2014,01,22,11,04,5.10
2014,01,22,11,05,5.00
2014,01,22,11,06,5.00
2014,01,22,11,07,5.00
2014,01,22,11,08,5.10
2014,01,22,11,09,5.10
2014,01,22,11,10,5.10
2014,01,22,11,11,5.10
2014,01,22,11,12,5.10
2014,01,22,11,13,5.10
2014,01,22,11,14,5.10
2014,01,22,11,15,5.10
2014,01,22,11,16,5.10
2014,01,22,11,17,5.00
2014,01,22,11,18,5.10
2014,01,22,11,19,5.10
2014,01,22,11,20,5.10
2014,01,22,11,21,5.10
2014,01,22,11,22,5.10
2014,01,22,11,23,5.10
2014,01,22,11,24,5.10
2014,01,22,11,25,5.10
2014,01,22,11,26,5.10
2014,01,22,11,27,5.10
2014,01,22,11,28,5.10
2014,01,22,11,29,5.10
2014,01,22,11,30,5.10
2014,01,22,11,31,5.10
2014,01,22,11,32,5.10
2014,01,22,11,33,5.10
2014,01,22,11,34,5.10
2014,01,22,11,35,5.10
2014,01,22,11,36,5.10
2014,01,22,11,37,5.10
2014,01,22,11,38,5.10
2014,01,22,11,39,5.10
2014,01,22,11,40,5.10
2014,01,22,11,41,5.10
2014,01,22,11,42,5.10
2014,01,22,11,43,5.10
2014,01,22,11,44,5.10
2014,01,22,11,45,5.10
2014,01,22,11,46,5.20
2014,01,22,11,47,5.20
2014,01,22,11,48,5.20
2014,01,22,11,49,5.10
2014,01,22,11,50,5.10
2014,01,22,11,51,5.10
2014,01,22,11,52,5.10
2014,01,22,11,53,5.00
2014,01,22,11,54,5.00
2014,01,22,11,55,5.00
2014,01,22,11,56,5.00
2014,01,22,11,57,5.10
2014,01,22,11,58,5.10
2014,01,22,11,59,5.10
2014,01,22,12,00,5.10
2014,01,22,12,01,5.20
2014,01,22,12,02,5.20
2014,01,22,12,03,5.20
2014,01,22,12,04,5.20
2014,01,22,12,05,5.20
2014,01,22,12,06,5.30
2014,01,22,12,07,5.30
2014,01,22,12,08,5.30
2014,01,22,12,09,5.30
2014,01,22,12,10,5.30
2014,01,22,12,11,5.30
2014,01,22,12,12,5.30
2014,01,22,12,13,5.30
2014,01,22,12,14,5.30
2014,01,22,12,15,5.30
2014,01,22,12,16,5.30
2014,01,22,12,17,5.30
2014,01,22,12,18,5.30
2014,01,22,12,19,5.30
2014,01,22,12,20,5.30
2014,01,22,12,21,5.40
2014,01,22,12,22,5.40
2014,01,22,12,23,5.40
2014,01,22,12,24,5.40
2014,01,22,12,25,5.40
2014,01,22,12,26,5.40
2014,01,22,12,27,5.40
2014,01,22,12,28,5.40
2014,01,22,12,29,5.30
2014,01,22,12,30,5.30
2014,01,22,12,31,5.30
2014,01,22,12,32,5.30
2014,01,22,12,33,5.30
2014,01,22,12,34,5.40
2014,01,22,12,35,5.40
2014,01,22,12,36,5.40
2014,01,22,12,37,5.40
2014,01,22,12,38,5.40
2014,01,22,12,39,5.50
2014,01,22,12,40,5.50
2014,01,22,12,41,5.50
2014,01,22,12,42,5.60
2014,01,22,12,43,5.60
2014,01,22,12,44,5.70
2014,01,22,12,45,5.70
2014,01,22,12,46,5.80
2014,01,22,12,47,5.80
2014,01,22,12,48,5.80
2014,01,22,12,49,5.90
2014,01,22,12,50,6.00
2014,01,22,12,51,6.00
2014,01,22,12,52,6.10
2014,01,22,12,53,6.20
2014,01,22,12,54,6.20
2014,01,22,12,55,6.20
2014,01,22,12,56,6.20
2014,01,22,12,57,6.20
2014,01,22,12,58,6.20
2014,01,22,12,59,6.20
2014,01,22,13,00,6.20
2014,01,22,13,01,6.20
2014,01,22,13,02,6.20
2014,01,22,13,03,6.20
2014,01,22,13,04,6.20
2014,01,22,13,05,6.20
2014,01,22,13,06,6.20
2014,01,22,13,07,6.20
2014,01,22,13,08,6.20
2014,01,22,13,09,6.20
2014,01,22,13,10,6.20
2014,01,22,13,11,6.30
2014,01,22,13,12,6.30
2014,01,22,13,13,6.40
2014,01,22,13,14,6.40
2014,01,22,13,15,6.50
2014,01,22,13,16,6.60
2014,01,22,13,17,6.60
2014,01,22,13,18,6.70
2014,01,22,13,19,6.70
2014,01,22,13,20,6.80
2014,01,22,13,21,6.80
2014,01,22,13,22,6.80
2014,01,22,13,23,6.80
2014,01,22,13,24,6.80
2014,01,22,13,25,6.80
2014,01,22,13,26,6.80
2014,01,22,13,27,6.80
2014,01,22,13,28,6.80
2014,01,22,13,29,6.80
2014,01,22,13,30,6.80
2014,01,22,13,31,6.70
2014,01,22,13,32,6.70
2014,01,22,13,33,6.70
2014,01,22,13,34,6.60
2014,01,22,13,35,6.60
2014,01,22,13,36,6.60
2014,01,22,13,37,6.60
2014,01,22,13,38,6.60
2014,01,22,13,39,6.60
2014,01,22,13,40,6.70
2014,01,22,13,41,6.70
2014,01,22,13,42,6.70
2014,01,22,13,43,6.80
2014,01,22,13,44,6.90
2014,01,22,13,45,6.90
2014,01,22,13,46,7.00
2014,01,22,13,47,7.10
2014,01,22,13,48,7.20
2014,01,22,13,49,7.20
2014,01,22,13,50,7.20
2014,01,22,13,51,7.20
2014,01,22,13,52,7.10
2014,01,22,13,53,7.10
2014,01,22,13,54,7.00
2014,01,22,13,55,6.90
2014,01,22,13,56,6.80
2014,01,22,13,57,6.70
2014,01,22,13,58,6.70
2014,01,22,13,59,6.70
2014,01,22,14,00,6.70
2014,01,22,14,01,6.70
2014,01,22,14,02,6.70
2014,01,22,14,03,6.70
2014,01,22,14,04,6.70
2014,01,22,14,05,6.70
2014,01,22,14,06,6.70
2014,01,22,14,07,6.70
2014,01,22,14,08,6.70
2014,01,22,14,09,6.70
2014,01,22,14,10,6.70
2014,01,22,14,11,6.70
2014,01,22,14,12,6.70
2014,01,22,14,13,6.80
2014,01,22,14,14,6.80
2014,01,22,14,15,6.80
2014,01,22,14,16,6.80
2014,01,22,14,17,6.90
2014,01,22,14,18,6.90
2014,01,22,14,19,7.00
2014,01,22,14,20,7.00
2014,01,22,14,21,7.10
2014,01,22,14,22,7.00
2014,01,22,14,23,7.00
2014,01,22,14,24,6.90
2014,01,22,14,25,6.90
2014,01,22,14,26,6.80
2014,01,22,14,27,6.80
2014,01,22,14,28,6.80
2014,01,22,14,29,6.80
2014,01,22,14,30,6.80
2014,01,22,14,31,6.80
2014,01,22,14,32,6.80
2014,01,22,14,33,6.80
2014,01,22,14,34,6.80
2014,01,22,14,35,6.80
2014,01,22,14,36,6.80
2014,01,22,14,37,6.80
2014,01,22,14,38,6.80
2014,01,22,14,39,6.80
2014,01,22,14,40,6.80
2014,01,22,14,41,6.80
2014,01,22,14,42,6.80
2014,01,22,14,43,6.80
2014,01,22,14,44,6.80
2014,01,22,14,45,6.80
2014,01,22,14,46,6.80
2014,01,22,14,47,6.80
2014,01,22,14,48,6.80
2014,01,22,14,49,6.90
2014,01,22,14,50,6.90
2014,01,22,14,51,6.90
2014,01,22,14,52,6.90
2014,01,22,14,53,6.90
2014,01,22,14,54,7.00
2014,01,22,14,55,7.00
2014,01,22,14,56,7.00
2014,01,22,14,57,7.00
2014,01,22,14,58,6.90
2014,01,22,14,59,6.90
2014,01,22,15,00,6.90
2014,01,22,15,01,6.80
2014,01,22,15,02,6.80
2014,01,22,15,03,6.80
2014,01,22,15,04,6.80
2014,01,22,15,05,6.80
2014,01,22,15,06,6.80
2014,01,22,15,07,6.70
2014,01,22,15,08,6.70
2014,01,22,15,09,6.70
2014,01,22,15,10,6.70
2014,01,22,15,11,6.70
2014,01,22,15,12,6.70
2014,01,22,15,13,6.70
2014,01,22,15,14,6.70
2014,01,22,15,15,6.70
2014,01,22,15,16,6.70
2014,01,22,15,17,6.70
2014,01,22,15,18,6.60
2014,01,22,15,19,6.60
2014,01,22,15,20,6.60
2014,01,22,15,21,6.60
2014,01,22,15,22,6.60
2014,01,22,15,23,6.50
2014,01,22,15,24,6.50
2014,01,22,15,25,6.50
2014,01,22,15,26,6.40
2014,01,22,15,27,6.30
2014,01,22,15,28,6.30
2014,01,22,15,29,6.30
2014,01,22,15,30,6.20
2014,01,22,15,31,6.20
2014,01,22,15,32,6.20
2014,01,22,15,33,6.20
2014,01,22,15,34,6.20
2014,01,22,15,35,6.20
2014,01,22,15,36,6.20
2014,01,22,15,37,6.20
2014,01,22,15,38,6.20
2014,01,22,15,39,6.20
2014,01,22,15,40,6.20
2014,01,22,15,41,6.20
2014,01,22,15,42,6.10
2014,01,22,15,43,6.10
2014,01,22,15,44,6.10
2014,01,22,15,45,6.10
2014,01,22,15,46,6.10
2014,01,22,15,47,6.10
2014,01,22,15,48,6.10
2014,01,22,15,49,6.10
2014,01,22,15,50,6.00
2014,01,22,15,51,6.00
2014,01,22,15,52,6.00
2014,01,22,15,53,6.00
2014,01,22,15,54,5.90
2014,01,22,15,55,5.90
2014,01,22,15,56,5.90
2014,01,22,15,57,5.90
2014,01,22,15,58,5.80
2014,01,22,15,59,5.80
2014,01,22,16,00,5.80
2014,01,22,16,01,5.80
2014,01,22,16,02,5.80
2014,01,22,16,03,5.70
2014,01,22,16,04,5.70
2014,01,22,16,05,5.70
2014,01,22,16,06,5.70
2014,01,22,16,07,5.70
2014,01,22,16,08,5.70
2014,01,22,16,09,5.70
2014,01,22,16,10,5.60
2014,01,22,16,11,5.60
2014,01,22,16,12,5.60
2014,01,22,16,13,5.60
2014,01,22,16,14,5.60
2014,01,22,16,15,5.60
2014,01,22,16,16,5.50
2014,01,22,16,17,5.50
2014,01,22,16,18,5.50
2014,01,22,16,19,5.50
2014,01,22,16,20,5.50
2014,01,22,16,21,5.50
2014,01,22,16,22,5.40
2014,01,22,16,23,5.40
2014,01,22,16,24,5.40
2014,01,22,16,25,5.40
2014,01,22,16,26,5.40
2014,01,22,16,27,5.40
2014,01,22,16,28,5.30
2014,01,22,16,29,5.30
2014,01,22,16,30,5.30
2014,01,22,16,31,5.30
2014,01,22,16,32,5.30
2014,01,22,16,33,5.30
2014,01,22,16,34,5.20
2014,01,22,16,35,5.20
2014,01,22,16,36,5.20
2014,01,22,16,37,5.20
2014,01,22,16,38,5.20
2014,01,22,16,39,5.20
2014,01,22,16,40,5.20
2014,01,22,16,41,5.10
2014,01,22,16,42,5.10
2014,01,22,16,43,5.10
2014,01,22,16,44,5.10
2014,01,22,16,45,5.10
2014,01,22,16,46,5.10
2014,01,22,16,47,5.10
2014,01,22,16,48,5.10
2014,01,22,16,49,5.00
2014,01,22,16,50,5.00
2014,01,22,16,51,5.00
2014,01,22,16,52,4.90
2014,01,22,16,53,4.90
2014,01,22,16,54,4.90
2014,01,22,16,55,4.80
2014,01,22,16,56,4.80
2014,01,22,16,57,4.80
2014,01,22,16,58,4.80
2014,01,22,16,59,4.80
2014,01,22,17,00,4.70
2014,01,22,17,01,4.70
2014,01,22,17,02,4.70
2014,01,22,17,03,4.70
2014,01,22,17,04,4.60
2014,01,22,17,05,4.60
2014,01,22,17,06,4.60
2014,01,22,17,07,4.60
2014,01,22,17,08,4.60
2014,01,22,17,09,4.50
2014,01,22,17,10,4.50
2014,01,22,17,11,4.50
2014,01,22,17,12,4.40
2014,01,22,17,13,4.40
2014,01,22,17,14,4.40
2014,01,22,17,15,4.40
2014,01,22,17,16,4.40
2014,01,22,17,17,4.40
2014,01,22,17,18,4.30
2014,01,22,17,19,4.30
2014,01,22,17,20,4.30
2014,01,22,17,21,4.30
2014,01,22,17,22,4.30
2014,01,22,17,23,4.30
2014,01,22,17,24,4.30
2014,01,22,17,25,4.30
2014,01,22,17,26,4.20
2014,01,22,17,27,4.20
2014,01,22,17,28,4.20
2014,01,22,17,29,4.10
2014,01,22,17,30,4.10
2014,01,22,17,31,4.10
2014,01,22,17,32,4.00
2014,01,22,17,33,4.00
2014,01,22,17,34,4.00
2014,01,22,17,35,3.90
2014,01,22,17,36,3.90
2014,01,22,17,37,3.90
2014,01,22,17,38,3.80
2014,01,22,17,39,3.80
2014,01,22,17,40,3.70
2014,01,22,17,41,3.70
2014,01,22,17,42,3.70
2014,01,22,17,43,3.70
2014,01,22,17,44,3.60
2014,01,22,17,45,3.60
2014,01,22,17,46,3.60
2014,01,22,17,47,3.50
2014,01,22,17,48,3.50
2014,01,22,17,49,3.40
2014,01,22,17,50,3.40
2014,01,22,17,51,3.30
2014,01,22,17,52,3.30
2014,01,22,17,53,3.30
2014,01,22,17,54,3.30
2014,01,22,17,55,3.30
2014,01,22,17,56,3.20
2014,01,22,17,57,3.20
2014,01,22,17,58,3.20
2014,01,22,17,59,3.20
2014,01,22,18,00,3.20
2014,01,22,18,01,3.10
2014,01,22,18,02,3.10
2014,01,22,18,03,3.10
2014,01,22,18,04,3.10
2014,01,22,18,05,3.10
2014,01,22,18,06,3.10
2014,01,22,18,07,3.10
2014,01,22,18,08,3.00
2014,01,22,18,09,3.00
2014,01,22,18,10,3.00
2014,01,22,18,11,3.00
2014,01,22,18,12,3.00
2014,01,22,18,13,3.00
2014,01,22,18,14,2.90
2014,01,22,18,15,2.90
2014,01,22,18,16,2.90
2014,01,22,18,17,2.90
2014,01,22,18,18,2.90
2014,01,22,18,19,2.90
2014,01,22,18,20,2.80
2014,01,22,18,21,2.80
2014,01,22,18,22,2.80
2014,01,22,18,23,2.80
2014,01,22,18,24,2.80
2014,01,22,18,25,2.80
2014,01,22,18,26,2.80
2014,01,22,18,27,2.80
2014,01,22,18,28,2.80
2014,01,22,18,29,2.70
2014,01,22,18,30,2.70
2014,01,22,18,31,2.70
2014,01,22,18,32,2.70
2014,01,22,18,33,2.70
2014,01,22,18,34,2.70
2014,01,22,18,35,2.70
2014,01,22,18,36,2.70
2014,01,22,18,37,2.70
2014,01,22,18,38,2.60
2014,01,22,18,39,2.60
2014,01,22,18,40,2.60
2014,01,22,18,41,2.60
2014,01,22,18,42,2.60
2014,01,22,18,43,2.60
2014,01,22,18,44,2.60
2014,01,22,18,45,2.60
2014,01,22,18,46,2.50
2014,01,22,18,47,2.50
2014,01,22,18,48,2.50
2014,01,22,18,49,2.50
2014,01,22,18,50,2.50
2014,01,22,18,51,2.40
2014,01,22,18,52,2.40
2014,01,22,18,53,2.40
2014,01,22,18,54,2.40
2014,01,22,18,55,2.30
2014,01,22,18,56,2.30
2014,01,22,18,57,2.30
2014,01,22,18,58,2.30
2014,01,22,18,59,2.30
2014,01,22,19,00,2.20
2014,01,22,19,01,2.20
2014,01,22,19,02,2.20
2014,01,22,19,03,2.20
2014,01,22,19,04,2.20
2014,01,22,19,05,2.20
2014,01,22,19,06,2.20
2014,01,22,19,07,2.20
2014,01,22,19,08,2.10
2014,01,22,19,09,2.10
2014,01,22,19,10,2.10
2014,01,22,19,11,2.10
2014,01,22,19,12,2.10
2014,01,22,19,13,2.10
2014,01,22,19,14,2.00
2014,01,22,19,15,2.00
2014,01,22,19,16,2.00
2014,01,22,19,17,2.00
2014,01,22,19,18,1.90
2014,01,22,19,19,1.90
2014,01,22,19,20,1.90
2014,01,22,19,21,1.90
2014,01,22,19,22,1.80
2014,01,22,19,23,1.80
2014,01,22,19,24,1.80
2014,01,22,19,25,1.80
2014,01,22,19,26,1.70
2014,01,22,19,27,1.70
2014,01,22,19,28,1.70
2014,01,22,19,29,1.70
2014,01,22,19,30,1.70
2014,01,22,19,31,1.70
2014,01,22,19,32,1.60
2014,01,22,19,33,1.60
2014,01,22,19,34,1.60
2014,01,22,19,35,1.60
2014,01,22,19,36,1.60
2014,01,22,19,37,1.60
2014,01,22,19,38,1.60
2014,01,22,19,39,1.60
2014,01,22,19,40,1.50
2014,01,22,19,41,1.50
2014,01,22,19,42,1.40
2014,01,22,19,43,1.40
2014,01,22,19,44,1.40
2014,01,22,19,45,1.40
2014,01,22,19,46,1.30
2014,01,22,19,47,1.30
2014,01,22,19,48,1.30
2014,01,22,19,49,1.30
2014,01,22,19,50,1.30
2014,01,22,19,51,1.30
2014,01,22,19,52,1.30
2014,01,22,19,53,1.30
2014,01,22,19,54,1.30
2014,01,22,19,55,1.30
2014,01,22,19,56,1.30
2014,01,22,19,57,1.30
2014,01,22,19,58,1.30
2014,01,22,19,59,1.20
2014,01,22,20,00,1.20
2014,01,22,20,01,1.20
2014,01,22,20,02,1.20
2014,01,22,20,03,1.20
2014,01,22,20,04,1.10
2014,01,22,20,05,1.10
2014,01,22,20,06,1.10
2014,01,22,20,07,1.10
2014,01,22,20,08,1.10
2014,01,22,20,09,1.10
2014,01,22,20,10,1.00
2014,01,22,20,11,1.00
2014,01,22,20,12,1.00
2014,01,22,20,13,1.00
2014,01,22,20,14,0.90
2014,01,22,20,15,0.90
2014,01,22,20,16,0.90
2014,01,22,20,17,0.90
2014,01,22,20,18,0.90
2014,01,22,20,19,0.90
2014,01,22,20,20,0.80
2014,01,22,20,21,0.80
2014,01,22,20,22,0.80
2014,01,22,20,23,0.80
2014,01,22,20,24,0.80
2014,01,22,20,25,0.80
2014,01,22,20,26,0.80
2014,01,22,20,27,0.70
2014,01,22,20,28,0.70
2014,01,22,20,29,0.70
2014,01,22,20,30,0.70
2014,01,22,20,31,0.60
2014,01,22,20,32,0.60
2014,01,22,20,33,0.60
2014,01,22,20,34,0.60
2014,01,22,20,35,0.60
2014,01,22,20,36,0.50
2014,01,22,20,37,0.50
2014,01,22,20,38,0.50
2014,01,22,20,39,0.50
2014,01,22,20,40,0.40
2014,01,22,20,41,0.40
2014,01,22,20,42,0.40
2014,01,22,20,43,0.40
2014,01,22,20,44,0.40
2014,01,22,20,45,0.40
2014,01,22,20,46,0.30
2014,01,22,20,47,0.30
2014,01,22,20,48,0.30
2014,01,22,20,49,0.30
2014,01,22,20,50,0.30
2014,01,22,20,51,0.30
2014,01,22,20,52,0.20
2014,01,22,20,53,0.20
2014,01,22,20,54,0.20
2014,01,22,20,55,0.20
2014,01,22,20,56,0.20
2014,01,22,20,57,0.20
2014,01,22,20,58,0.20
2014,01,22,20,59,0.20
2014,01,22,21,00,0.20
2014,01,22,21,01,0.20
2014,01,22,21,02,0.20
2014,01,22,21,03,0.10
2014,01,22,21,04,0.10
2014,01,22,21,05,0.10
2014,01,22,21,06,0.10
2014,01,22,21,07,0.10
2014,01,22,21,08,0.00
2014,01,22,21,09,0.00
2014,01,22,21,10,0.00
2014,01,22,21,11,0.00
2014,01,22,21,12,-0.10
2014,01,22,21,13,-0.10
2014,01,22,21,14,-0.10
2014,01,22,21,15,-0.10
2014,01,22,21,16,-0.10
2014,01,22,21,17,-0.10
2014,01,22,21,18,-0.10
2014,01,22,21,19,-0.10
2014,01,22,21,20,-0.20
2014,01,22,21,21,-0.20
2014,01,22,21,22,-0.20
2014,01,22,21,23,-0.20
2014,01,22,21,24,-0.20
2014,01,22,21,25,-0.20
2014,01,22,21,26,-0.20
2014,01,22,21,27,-0.30
2014,01,22,21,28,-0.30
2014,01,22,21,29,-0.30
2014,01,22,21,30,-0.30
2014,01,22,21,31,-0.30
2014,01,22,21,32,-0.30
2014,01,22,21,33,-0.30
2014,01,22,21,34,-0.30
2014,01,22,21,35,-0.30
2014,01,22,21,36,-0.30
2014,01,22,21,37,-0.30
2014,01,22,21,38,-0.30
2014,01,22,21,39,-0.20
2014,01,22,21,40,-0.20
2014,01,22,21,41,-0.20
2014,01,22,21,42,-0.20
2014,01,22,21,43,-0.20
2014,01,22,21,44,-0.20
2014,01,22,21,45,-0.20
2014,01,22,21,46,-0.20
2014,01,22,21,47,-0.20
2014,01,22,21,48,-0.20
2014,01,22,21,49,-0.20
2014,01,22,21,50,-0.20
2014,01,22,21,51,-0.20
2014,01,22,21,52,-0.10
2014,01,22,21,53,-0.10
2014,01,22,21,54,-0.10
2014,01,22,21,55,-0.10
2014,01,22,21,56,-0.10
2014,01,22,21,57,0.00
2014,01,22,21,58,0.00
2014,01,22,21,59,0.00
2014,01,22,22,00,0.00